Torna al catalogo

DELTA 1 DEB

AttivoLEO
NORAD 5971·DEBRIS·🇺🇸 United States

Lanciato Jan 26, 1967 da Vandenberg Space Force Base

Loading…

Prossimi Passaggi (prossime 24 ore)

TLE

AggiornatoSource: Space-Track

Epoca: Sep 14, 2026, 07:28 UTC

1 05971U 67006E   26257.31133428 -.00000026  00000-0  10513-3 0  9990
2 05971 101.9573 205.5734 0112846 153.5185   4.5046 12.73488539772438

Traccia DELTA 1 DEB in tempo reale con AllMySat

Download on the App Store